Погода в Тулуне

Погода в Тулуне : погода сейчас, прогноз погоды и архив. Всё, что Вы хотите узнать о погоде в Тулуне!

Хотите узнать прогноз погоды в Тулуне? Тогда Вам сюда: Погода в Тулуне

Поиск расширенной информации на нашем сайте:

Другие новости

Новости СМИ2

Главная страница сайта

Новости сайта

02.10.2013

Напоминаем, что на нашем новом сайте вы можете получить высокодетализированные прогнозы погоды по пунктам России, СНГ и мира (включающие важные для авиации метеовеличины, такие как направление и скорость ветра, видимость, явления погоды, количество и форма облачности, нижняя и верхняя граница облачности), а также ознакомиться с разнообразными материалами по авиационной метеорологии и подборкой полезных ссылок на эту тему.

Сайт Метеоцентр.Азия посвящён разработке технологий оптимизации авиаметеорологического обслуживания, включая проектирование и перспективное создание нескольких автоматизированных авиаметеорологических систем:
- система выпуска высокодетальных прогностических карт явлений погоды для нижнего воздушного пространства по России и ближнему зарубежью;
- система верификации прогнозов TAF (выпускаемых синоптиками официальных АМСГ РФ и ближнего зарубежья) и AUTOTAF (выпускаемых сайтом Метеоцентр.Азия) - выявление ошибок, онлайн-сопоставление с фактической погодой METAR, автоматическое внесение коррективов в прогнозы при резком отклонении фактической погоды от прогноза, подсчёт оправдываемости прогнозов по элементам и в целом;
- система обработки, анализа и отображения авиаметеорологической информации для применения провайдерами метеорологической информации.

Рекомендуем: Где купить оптом лес.

Погода в Тулуне - сегодня

Время (UTC), дата Ветер
(°,м/с) 
Видим.   Явления Облачность Т
(°С)
Тd
(°С)
f(%) Тe
(°С)
Pmin
(гПа)
dP
(гПа)
Po
(мм)
O2
(г/м3)
Тmin Tmax R s Состояние
почвы
21 17.02.17 140 (ЮВ) 10 км    10/5 600 м кучево-дожд., средняя 
[Cb calv|Ac As]
-14.1 -19.3 65 -18  1006.9  -1.7  705  301           
00 18.02.17 220 (ЮЗ) 10 км  {ливн. осадки}  10/5 600 м кучево-дожд., средняя 
[Cb calv|Ac As]
-14.1 -16.4 83 -14  1008.7  1.7  707  301  -14.7    0.4  42  неравномерный
сухой снег
100% 
03 18.02.17 290 (З) 4{11}  20000 м  позёмок  9/3 600 м кучево-дожд., средняя 
[Cb calv|Ac trans]
-11.1 -15.3 71 -15  1015  6.7  712  300           
06 18.02.17 320 (СЗ) 6-12{12}  20000 м  позёмок  6/6 600 м кучево-дожд. 
[Cb calv]
-9.5 -15.8 60 -15  1021.1  5.9  716  300           
09 18.02.17 290 (З) 3{12}  20000 м    6/6 600 м кучево-дожд. 
[Cb calv]
-9.3 -16 58 -12  1023.6  2.5  718  301           
12 18.02.17 320 (СЗ) 1{11}  10 км    3/3 600 м кучево-дожд. 
[Cb calv]
-12.7 -17.9 65 -13  1028.3  3.5  720  306    -8.8       
15 18.02.17 тихо ()   10 км    ясно 
-15.6 -18.3 80 -16  1029.8  0.7  721  310           
18 18.02.17 тихо ()   10 км    ясно 
-19.2 -21.8 80 -19  1030.8  721  314           
21 18.02.17 тихо ()   10 км    ясно 
-23 -25.6 79 -23  1032.5  0.5  721  319           
00 19.02.17 тихо ()   10 км    1/0 верхняя 
[Ci fib]
-24.9 -27.4 80 -25  1033.5  0.4  722  322  -24.9      39  неравномерный
сухой снег
100% 
03 19.02.17 тихо ()   20000 м    ясно 
-21.9 -24.5 79 -22  1033.2  0.5  722  318           
06 19.02.17 130 (ЮВ) 20000 м    ясно 
-11.3 -17.5 60 -13  1028.9  -1.2  721  304           
09 19.02.17 130 (ЮВ) 20000 м    ясно 
-8.6 -20.1 39 -11  1026.5  -1.6  720  301           
12 19.02.17 120 (ЮВ) 10 км    ясно 
-11.4 -19.8 50 -16  1024.6  -2.5  718  303    -8.6       
15 19.02.17 150 (ЮВ) 10 км    ясно 
-13.5 -20.6 55 -18  1023.5  -1.5  717  305           
18 19.02.17 150 (ЮВ) 10 км    ясно 
-13.5 -20.6 55 -18  1021.6  -1.8  716  305           
21 19.02.17 170 (Ю) 10 км    ясно 
-15.4 -21.4 60 -19  1021.8  -0.4  715  307           
00 20.02.17 250 (З) 10 км    9/0 средняя, верхняя 
[Ac trans|Ci sp]
-20.7 -23.2 80 -21  1025.9  2.6  717  314  -20.7      39  неравномерный
сухой снег
100% 
03 20.02.17 280 (З) 20000 м  слаб. ливневой снег  10/10 600 м кучево-дожд. 
[Cb calv]
-14.9 -19.2 70 -17  1028.4  3.8  720  308           
06 20.02.17 010 (С) 20000 м  {ливн. осадки}  9/3 600 м кучево-дожд., верхняя 
[Cb calv|Ci sp]
-5.7 -12.9 57 -7  1024.6  -1.2  719  297           
09 20.02.17 100 (В) 20000 м    9/0 средняя, верхняя 
[Ac trans|Ci sp]
-5.4 -13.4 53 -7  1024.7  0.2  719  297           
12 20.02.17 220 (ЮЗ) 10 км    5/0 средняя, верхняя 
[Ac trans|Ci sp]
-9.1 -13.7 69 -9  1026.9  1.2  720  301    -4.8  0.0     
15 20.02.17 080 (В) 10 км    4/0 верхняя 
[Ci sp]
-10.5 -12.5 85 -10  1027.8  0.4  721  303           
18 20.02.17 тихо ()   10 км    ясно 
-16.4 -18.1 87 -16  1028.9  -0.4  720  310           
21 20.02.17 230 (ЮЗ) 10 км    3/0 верхняя 
[Ci sp]
-20.4 -22.9 80 -21  1030.1  0.1  720  315           
Время (UTC), дата Ветер
(°,м/с) 
Видим.   Явления Облачность Т
(°С)
Тd
(°С)
f(%) Тe
(°С)
Pmin
(гПа)
dP
(гПа)
Po
(мм)
O2
(г/м3)
Тmin Tmax R s Состояние
почвы

Для получения пояснительной информации подведите курсор к названию столбца.

ПОГОДА в Тулуне - архив

Всё, что Вы хотите узнать о погоде в Тулуне - удобно и подробно!

Выберите нужную дату (начиная с 1 января 2015* года) и нажмите кнопку "Найти".
Будут отображены архивные сводки погоды по пункту Тулун, начиная с указанной даты.


Отображать данные в формате CSV (для использования в таблицах Excel)


Внимание! Наш архив погоды предназначен исключительно для личного некоммерческого использования в познавательных целях. Если Вам необходимы официальные справки о состоянии погоды (для производственных, юридических, коммерческих и т.п. целей), обращайтесь в органы Росгидромета.

*Примечание: данная дата относится к архиву по метеостанциям СССР (Россия, СНГ, Балтия).
Архив по метеостанциям Зарубежной Европы и Азии (кроме Китая) хранится 10 дней, по другим регионам земного шара (Китай, Африка, Америка, Австралия, Океания) - 1 день.

Тулун - район местоположения метеостанции


Название, широта, долгота, высота метеостанции:
Тулун 54.6°ш. 100.6°д. 522 м над ур. моря [Российская Федерация]

Дополнительная информация

В oтличие oт бoльшинства пoгoдных сайтoв мы публикуем пoдрoбную метеoинфoрмацию в детальнoм прoфессиoнальнoм фoрмате.

Характеристики температуры и влажнoсти вoздуха измеряются на высoте 2 м в тени вдали oт зданий и деревьев.
Скoрoсть ветра измеряется на высoте 10 м (на урoвне рoста челoвека скoрoсть ветра ниже в 1.5-2 раза). Если метеoстанция нахoдится в гoрoде или в лесу, тo скoрoсть ветра занижена на 2-4 м/с пo сравнению с oткрытым местoм. Скoрoсть ветра над акватoриями крупных рек и oзёр, а также на вершинах хoлмoв на 2-5 м/с выше, чем в oбычных услoвиях.
Атмoсфернoе давление в разных тoчках местнoсти мoжет значительнo oтличаться oт давления на метеoстанции, в зависимoсти oт услoвий рельефа (при пoдъёме на 10 м давление пoнижается примернo на 1 мм рт.ст.).